Tracking 19795 objects as of 17-Jul-2019
HD Live streaming from Space Station
objects crossing your sky now

FENGYUN 1C DEB

Track FENGYUN 1C DEB now!
10-day predictions


NORAD ID: 30625
Int'l Code: 1999-025ANG
Perigee: 815.3 km
Apogee: 935.0 km
Inclination: 98.9 °
Period: 102.3 minutes
Semi major axis: 7246 km
RCS: 0.017 m2 (small)
Launch date: May 10, 1999
Source: People's Republic of China (PRC)
Launch site: Taiyaun Space Center, China (TSC)

Note: This is SATELLITE DEBRIS
aabbcc
Your satellite tracking list
Your tracking list is empty




NASA's NSSDC Master Catalog

Two Line Element Set (TLE):
1 30625U 99025ANG 19197.26720858 +.00001166 +00000-0 +69602-3 0  9996
2 30625 098.9210 116.0880 0082575 120.0869 240.8520 14.07484841635527
Source of the keplerian elements: AFSPC